Piney Island, NC

11:29 AM EDT on April 27, 2017 (GMT -0400)
Piney Island

Weather History for KNBT - August, 2013

Change the Weather History Date:

Tuesday, August 27, 2013

  Actual Average (KMRH) Record (KMRH)
Temperature  
Mean Temperature 76 °F -  
Max Temperature 87 °F 86 °F 93 °F (1954)
Min Temperature 68 °F 69 °F 60 °F (1984)
Cooling Degree Days 11    
Growing Degree Days 26 (Base 50)    
Moisture  
Dew Point 65 °F    
Average Humidity 68    
Maximum Humidity 90    
Minimum Humidity 46    
Precipitation  
Precipitation 0.00 in - - ()
Sea Level Pressure  
Sea Level Pressure 30.06 in    
Wind  
Wind Speed 7 mph (SW)    
Max Wind Speed 14 mph    
Max Gust Speed 20 mph    
Visibility 10 miles    
Events      
Averages and records for this station are not official NWS values.
T = Trace of Precipitation, MM = Missing Value Source: NWS Daily Summary

Daily Weather History Graph

Daily Weather History Graph

Search for Another Location

Airport or City:

Trip Planner

Search our weather history database for the weather conditions in past years. The results will help you decide how hot, cold, wet, or windy it might be!

Date:

Astronomy

Aug. 27, 2013 Rise Set
Actual Time 6:35 AM EDT 7:38 PM EDT
Civil Twilight 6:08 AM EDT 8:04 PM EDT
Nautical Twilight 5:37 AM EDT 8:35 PM EDT
Astronomical Twilight 5:05 AM EDT 9:07 PM EDT
Moon 11:48 PM EDT 1:13 PM EDT
Length of Visible Light 13h 56m
Length of Day
13h 03m
Waning Gibbous, 57% of the Moon is Illuminated
Aug 27
Waning Gibbous
Aug 28
Last Quarter
Sep 5
New
Sep 12
First Quarter
Sep 19
Full

Hourly Weather History & Observations

Time (EDT) Temp. Heat Index Dew Point Humidity Pressure Visibility Wind Dir Wind Speed Gust Speed Precip Events Conditions
12:56 AM 71.1 °F - 63.0 °F 75% 30.14 in 10.0 mi SW 4.6 mph - N/A   Clear
1:56 AM 71.1 °F - 63.0 °F 75% 30.13 in 10.0 mi SW 6.9 mph - N/A   Clear
2:56 AM 69.1 °F - 64.0 °F 84% 30.10 in 10.0 mi SSW 6.9 mph - N/A   Clear
3:56 AM 69.1 °F - 64.0 °F 84% 30.09 in 10.0 mi WSW 4.6 mph - N/A   Clear
4:56 AM 70.0 °F - 64.0 °F 81% 30.09 in 10.0 mi SW 5.8 mph - N/A   Clear
5:56 AM 69.1 °F - 66.0 °F 90% 30.09 in 10.0 mi SW 4.6 mph - N/A   Clear
6:56 AM 68.0 °F - 64.9 °F 90% 30.09 in 10.0 mi SSW 6.9 mph - N/A   Clear
7:56 AM 72.0 °F - 66.9 °F 84% 30.09 in 10.0 mi WSW 5.8 mph - N/A   Clear
8:56 AM 75.9 °F - 64.9 °F 69% 30.09 in 10.0 mi West 8.1 mph - N/A   Clear
9:56 AM 80.1 °F 81.7 °F 64.0 °F 58% 30.09 in 10.0 mi West 10.4 mph - N/A   Clear
10:56 AM 81.0 °F 81.7 °F 61.0 °F 50% 30.08 in 10.0 mi West 12.7 mph - N/A   Clear
11:56 AM 82.9 °F 83.3 °F 61.0 °F 47% 30.06 in 10.0 mi WSW 9.2 mph - N/A   Clear
12:56 PM 84.0 °F 84.4 °F 61.0 °F 46% 30.04 in 10.0 mi WSW 9.2 mph - N/A   Clear
1:56 PM 84.9 °F 85.4 °F 62.1 °F 46% 30.04 in 10.0 mi SW 9.2 mph 19.6 mph N/A   Clear
2:56 PM 84.9 °F 86.6 °F 64.9 °F 51% 30.02 in 10.0 mi WSW 10.4 mph - N/A   Clear
3:56 PM 84.9 °F 86.6 °F 64.9 °F 51% 30.01 in 10.0 mi SSW 12.7 mph - N/A   Clear
4:56 PM 84.0 °F 86.3 °F 66.0 °F 55% 30.00 in 10.0 mi South 13.8 mph 18.4 mph N/A   Clear
5:56 PM 82.0 °F 83.8 °F 64.9 °F 56% 30.00 in 10.0 mi SSW 13.8 mph 18.4 mph N/A   Clear
6:56 PM 80.1 °F 81.9 °F 64.9 °F 60% 30.00 in 10.0 mi SW 9.2 mph - N/A   Clear
7:56 PM 75.9 °F - 66.0 °F 71% 30.01 in 10.0 mi SSW 6.9 mph - N/A   Clear
8:56 PM 75.0 °F - 66.9 °F 76% 30.01 in 10.0 mi SSW 6.9 mph - N/A   Clear
9:56 PM 75.0 °F - 66.9 °F 76% 30.01 in 10.0 mi SSW 6.9 mph - N/A   Clear
10:56 PM 73.9 °F - 68.0 °F 82% 30.02 in 10.0 mi SSW 5.8 mph - N/A   Clear
11:56 PM 73.9 °F - 68.0 °F 82% 30.02 in 10.0 mi SSW 5.8 mph - N/A   Clear